Year,Month,Day,Hour,Minute,Value (Times are PST for temperature in C)
2019,03,19,00,00,13.20
2019,03,19,00,01,13.20
2019,03,19,00,02,13.20
2019,03,19,00,03,13.20
2019,03,19,00,04,13.10
2019,03,19,00,05,13.10
2019,03,19,00,06,13.10
2019,03,19,00,07,13.10
2019,03,19,00,08,13.00
2019,03,19,00,09,13.00
2019,03,19,00,10,12.90
2019,03,19,00,11,12.90
2019,03,19,00,12,12.90
2019,03,19,00,13,12.90
2019,03,19,00,14,12.90
2019,03,19,00,15,13.00
2019,03,19,00,16,12.90
2019,03,19,00,17,12.90
2019,03,19,00,18,12.90
2019,03,19,00,19,12.90
2019,03,19,00,20,12.80
2019,03,19,00,21,12.80
2019,03,19,00,22,12.80
2019,03,19,00,23,12.70
2019,03,19,00,24,12.70
2019,03,19,00,25,12.70
2019,03,19,00,26,12.70
2019,03,19,00,27,12.70
2019,03,19,00,28,12.70
2019,03,19,00,29,12.60
2019,03,19,00,30,12.60
2019,03,19,00,31,12.60
2019,03,19,00,32,12.50
2019,03,19,00,33,12.50
2019,03,19,00,34,12.50
2019,03,19,00,35,12.40
2019,03,19,00,36,12.40
2019,03,19,00,37,12.30
2019,03,19,00,38,12.20
2019,03,19,00,39,12.20
2019,03,19,00,40,12.10
2019,03,19,00,41,12.10
2019,03,19,00,42,12.00
2019,03,19,00,43,11.90
2019,03,19,00,44,11.90
2019,03,19,00,45,11.90
2019,03,19,00,46,11.80
2019,03,19,00,47,11.80
2019,03,19,00,48,11.80
2019,03,19,00,49,11.80
2019,03,19,00,50,11.80
2019,03,19,00,51,11.80
2019,03,19,00,52,11.70
2019,03,19,00,53,11.70
2019,03,19,00,54,11.70
2019,03,19,00,55,11.70
2019,03,19,00,56,11.70
2019,03,19,00,57,11.70
2019,03,19,00,58,11.70
2019,03,19,00,59,11.80
2019,03,19,01,00,11.80
2019,03,19,01,01,11.80
2019,03,19,01,02,11.80
2019,03,19,01,03,11.80
2019,03,19,01,04,11.80
2019,03,19,01,05,11.80
2019,03,19,01,06,11.70
2019,03,19,01,07,11.70
2019,03,19,01,08,11.70
2019,03,19,01,09,11.70
2019,03,19,01,10,11.70
2019,03,19,01,11,11.70
2019,03,19,01,12,11.70
2019,03,19,01,13,11.60
2019,03,19,01,14,11.60
2019,03,19,01,15,11.60
2019,03,19,01,16,11.60
2019,03,19,01,17,11.60
2019,03,19,01,18,11.60
2019,03,19,01,19,11.60
2019,03,19,01,20,11.60
2019,03,19,01,21,11.60
2019,03,19,01,22,11.60
2019,03,19,01,23,11.60
2019,03,19,01,24,11.60
2019,03,19,01,25,11.60
2019,03,19,01,26,11.60
2019,03,19,01,27,11.60
2019,03,19,01,28,11.60
2019,03,19,01,29,11.60
2019,03,19,01,30,11.60
2019,03,19,01,31,11.70
2019,03,19,01,32,11.70
2019,03,19,01,33,11.70
2019,03,19,01,34,11.70
2019,03,19,01,35,11.70
2019,03,19,01,36,11.70
2019,03,19,01,37,11.80
2019,03,19,01,38,11.80
2019,03,19,01,39,11.80
2019,03,19,01,40,11.80
2019,03,19,01,41,11.80
2019,03,19,01,42,11.80
2019,03,19,01,43,11.80
2019,03,19,01,44,11.80
2019,03,19,01,45,11.80
2019,03,19,01,46,11.80
2019,03,19,01,47,11.80
2019,03,19,01,48,11.80
2019,03,19,01,49,11.80
2019,03,19,01,50,11.80
2019,03,19,01,51,11.80
2019,03,19,01,52,11.80
2019,03,19,01,53,11.80
2019,03,19,01,54,11.80
2019,03,19,01,55,11.70
2019,03,19,01,56,11.70
2019,03,19,01,57,11.70
2019,03,19,01,58,11.70
2019,03,19,01,59,11.70
2019,03,19,02,00,11.70
2019,03,19,02,01,11.70
2019,03,19,02,02,11.70
2019,03,19,02,03,11.70
2019,03,19,02,04,11.70
2019,03,19,02,05,11.60
2019,03,19,02,06,11.60
2019,03,19,02,07,11.60
2019,03,19,02,08,11.60
2019,03,19,02,09,11.50
2019,03,19,02,10,11.50
2019,03,19,02,11,11.50
2019,03,19,02,12,11.50
2019,03,19,02,13,11.60
2019,03,19,02,14,11.60
2019,03,19,02,15,11.60
2019,03,19,02,16,11.60
2019,03,19,02,17,11.60
2019,03,19,02,18,11.50
2019,03,19,02,19,11.50
2019,03,19,02,20,11.50
2019,03,19,02,21,11.50
2019,03,19,02,22,11.50
2019,03,19,02,23,11.40
2019,03,19,02,24,11.40
2019,03,19,02,25,11.40
2019,03,19,02,26,11.40
2019,03,19,02,27,11.40
2019,03,19,02,28,11.40
2019,03,19,02,29,11.40
2019,03,19,02,30,11.40
2019,03,19,02,31,11.40
2019,03,19,02,32,11.30
2019,03,19,02,33,11.30
2019,03,19,02,34,11.30
2019,03,19,02,35,11.30
2019,03,19,02,36,11.30
2019,03,19,02,37,11.30
2019,03,19,02,38,11.30
2019,03,19,02,39,11.40
2019,03,19,02,40,11.40
2019,03,19,02,41,11.40
2019,03,19,02,42,11.50
2019,03,19,02,43,11.50
2019,03,19,02,44,11.50
2019,03,19,02,45,11.50
2019,03,19,02,46,11.50
2019,03,19,02,47,11.50
2019,03,19,02,48,11.40
2019,03,19,02,49,11.40
2019,03,19,02,50,11.30
2019,03,19,02,51,11.30
2019,03,19,02,52,11.20
2019,03,19,02,53,11.20
2019,03,19,02,54,11.10
2019,03,19,02,55,11.00
2019,03,19,02,56,11.00
2019,03,19,02,57,10.90
2019,03,19,02,58,10.90
2019,03,19,02,59,10.90
2019,03,19,03,00,10.80
2019,03,19,03,01,10.80
2019,03,19,03,02,10.80
2019,03,19,03,03,10.80
2019,03,19,03,04,10.70
2019,03,19,03,05,10.70
2019,03,19,03,06,10.70
2019,03,19,03,07,10.70
2019,03,19,03,08,10.70
2019,03,19,03,09,10.70
2019,03,19,03,10,10.70
2019,03,19,03,11,10.70
2019,03,19,03,12,10.70
2019,03,19,03,13,10.70
2019,03,19,03,14,10.70
2019,03,19,03,15,10.70
2019,03,19,03,16,10.70
2019,03,19,03,17,10.70
2019,03,19,03,18,10.70
2019,03,19,03,19,10.70
2019,03,19,03,20,10.70
2019,03,19,03,21,10.60
2019,03,19,03,22,10.60
2019,03,19,03,23,10.60
2019,03,19,03,24,10.50
2019,03,19,03,25,10.50
2019,03,19,03,26,10.50
2019,03,19,03,27,10.50
2019,03,19,03,28,10.50
2019,03,19,03,29,10.50
2019,03,19,03,30,10.50
2019,03,19,03,31,10.50
2019,03,19,03,32,10.50
2019,03,19,03,33,10.60
2019,03,19,03,34,10.60
2019,03,19,03,35,10.60
2019,03,19,03,36,10.60
2019,03,19,03,37,10.70
2019,03,19,03,38,10.70
2019,03,19,03,39,10.70
2019,03,19,03,40,10.70
2019,03,19,03,41,10.70
2019,03,19,03,42,10.80
2019,03,19,03,43,10.80
2019,03,19,03,44,10.80
2019,03,19,03,45,10.80
2019,03,19,03,46,10.80
2019,03,19,03,47,10.80
2019,03,19,03,48,10.80
2019,03,19,03,49,10.80
2019,03,19,03,50,10.80
2019,03,19,03,51,10.80
2019,03,19,03,52,10.80
2019,03,19,03,53,10.80
2019,03,19,03,54,10.80
2019,03,19,03,55,10.80
2019,03,19,03,56,10.70
2019,03,19,03,57,10.70
2019,03,19,03,58,10.70
2019,03,19,03,59,10.70
2019,03,19,04,00,10.70
2019,03,19,04,01,10.70
2019,03,19,04,02,10.70
2019,03,19,05,04,10.20
2019,03,19,05,05,10.20
2019,03,19,05,06,10.20
2019,03,19,05,07,10.30
2019,03,19,05,08,10.30
2019,03,19,05,09,10.30
2019,03,19,05,10,10.30
2019,03,19,05,11,10.40
2019,03,19,05,12,10.40
2019,03,19,05,13,10.40
2019,03,19,05,14,10.40
2019,03,19,05,15,10.40
2019,03,19,05,16,10.40
2019,03,19,05,17,10.50
2019,03,19,05,18,10.50
2019,03,19,05,19,10.50
2019,03,19,05,20,10.50
2019,03,19,05,21,10.50
2019,03,19,05,22,10.50
2019,03,19,05,23,10.50
2019,03,19,05,24,10.50
2019,03,19,05,25,10.50
2019,03,19,05,26,10.60
2019,03,19,05,27,10.60
2019,03,19,05,28,10.60
2019,03,19,05,29,10.60
2019,03,19,05,30,10.50
2019,03,19,05,31,10.50
2019,03,19,05,32,10.50
2019,03,19,05,33,10.40
2019,03,19,05,34,10.40
2019,03,19,05,35,10.40
2019,03,19,05,36,10.40
2019,03,19,05,37,10.40
2019,03,19,05,38,10.50
2019,03,19,05,39,10.50
2019,03,19,05,40,10.50
2019,03,19,05,41,10.50
2019,03,19,05,42,10.50
2019,03,19,05,43,10.40
2019,03,19,05,44,10.40
2019,03,19,05,45,10.40
2019,03,19,05,46,10.40
2019,03,19,05,47,10.40
2019,03,19,05,48,10.40
2019,03,19,05,49,10.40
2019,03,19,05,50,10.30
2019,03,19,05,51,10.30
2019,03,19,05,52,10.20
2019,03,19,05,53,10.20
2019,03,19,05,54,10.10
2019,03,19,05,55,10.10
2019,03,19,05,56,10.00
2019,03,19,05,57,10.00
2019,03,19,05,58,9.90
2019,03,19,05,59,9.80
2019,03,19,06,00,9.80
2019,03,19,06,01,9.70
2019,03,19,06,02,9.70
2019,03,19,06,03,9.60
2019,03,19,06,04,9.60
2019,03,19,06,05,9.60
2019,03,19,06,06,9.50
2019,03,19,06,07,9.50
2019,03,19,06,08,9.50
2019,03,19,06,09,9.40
2019,03,19,06,10,9.40
2019,03,19,06,11,9.40
2019,03,19,06,12,9.40
2019,03,19,06,13,9.50
2019,03,19,06,14,9.50
2019,03,19,06,15,9.60
2019,03,19,06,16,9.60
2019,03,19,06,17,9.60
2019,03,19,06,18,9.60
2019,03,19,06,19,9.60
2019,03,19,06,20,9.60
2019,03,19,06,21,9.60
2019,03,19,06,22,9.60
2019,03,19,06,23,9.60
2019,03,19,06,24,9.60
2019,03,19,06,25,9.50
2019,03,19,06,26,9.50
2019,03,19,06,27,9.50
2019,03,19,06,28,9.50
2019,03,19,06,29,9.60
2019,03,19,06,30,9.60
2019,03,19,06,31,9.50
2019,03,19,06,32,9.50
2019,03,19,06,33,9.50
2019,03,19,06,34,9.40
2019,03,19,06,35,9.40
2019,03,19,06,36,9.40
2019,03,19,06,37,9.30
2019,03,19,06,38,9.30
2019,03,19,06,39,9.30
2019,03,19,06,40,9.30
2019,03,19,06,41,9.30
2019,03,19,06,42,9.30
2019,03,19,06,43,9.30
2019,03,19,06,44,9.30
2019,03,19,06,45,9.30
2019,03,19,06,46,9.30
2019,03,19,06,47,9.30
2019,03,19,06,48,9.30
2019,03,19,06,49,9.30
2019,03,19,06,50,9.20
2019,03,19,06,51,9.20
2019,03,19,06,52,9.20
2019,03,19,06,53,9.20
2019,03,19,06,54,9.20
2019,03,19,06,55,9.10
2019,03,19,06,56,9.10
2019,03,19,06,57,9.10
2019,03,19,06,58,9.00
2019,03,19,06,59,8.90
2019,03,19,07,00,8.90
2019,03,19,07,01,8.80
2019,03,19,07,02,8.80
2019,03,19,07,03,8.70
2019,03,19,07,04,8.70
2019,03,19,07,05,8.60
2019,03,19,07,06,8.50
2019,03,19,07,07,8.40
2019,03,19,07,08,8.40
2019,03,19,07,09,8.30
2019,03,19,07,10,8.20
2019,03,19,07,11,8.20
2019,03,19,07,12,8.20
2019,03,19,07,13,8.10
2019,03,19,07,14,8.00
2019,03,19,07,15,8.00
2019,03,19,07,16,7.90
2019,03,19,07,17,7.90
2019,03,19,07,18,7.90
2019,03,19,07,19,7.90
2019,03,19,07,20,7.90
2019,03,19,07,21,7.90
2019,03,19,07,22,7.90
2019,03,19,07,23,7.90
2019,03,19,07,24,7.90
2019,03,19,07,25,7.90
2019,03,19,07,26,7.90
2019,03,19,07,27,8.00
2019,03,19,07,28,8.00
2019,03,19,07,29,8.00
2019,03,19,07,30,8.00
2019,03,19,07,31,8.10
2019,03,19,07,32,8.10
2019,03,19,07,33,8.10
2019,03,19,07,34,8.10
2019,03,19,07,35,8.10
2019,03,19,07,36,8.20
2019,03,19,07,37,8.20
2019,03,19,07,38,8.20
2019,03,19,07,39,8.20
2019,03,19,07,40,8.20
2019,03,19,07,41,8.20
2019,03,19,07,42,8.20
2019,03,19,07,43,8.20
2019,03,19,07,44,8.20
2019,03,19,07,45,8.30
2019,03,19,07,46,8.30
2019,03,19,07,47,8.30
2019,03,19,07,48,8.30
2019,03,19,07,49,8.30
2019,03,19,07,50,8.30
2019,03,19,07,51,8.30
2019,03,19,07,52,8.40
2019,03,19,07,53,8.40
2019,03,19,07,54,8.40
2019,03,19,07,55,8.40
2019,03,19,07,56,8.40
2019,03,19,07,57,8.50
2019,03,19,07,58,8.50
2019,03,19,07,59,8.50
2019,03,19,08,00,8.50
2019,03,19,08,01,8.50
2019,03,19,08,02,8.50
2019,03,19,08,03,8.60
2019,03,19,08,04,8.60
2019,03,19,08,05,8.60
2019,03,19,08,06,8.60
2019,03,19,08,07,8.60
2019,03,19,08,08,8.70
2019,03,19,08,09,8.70
2019,03,19,08,10,8.70
2019,03,19,08,11,8.70
2019,03,19,08,12,8.80
2019,03,19,08,13,8.80
2019,03,19,08,14,8.80
2019,03,19,08,15,8.80
2019,03,19,08,16,8.80
2019,03,19,08,17,8.90
2019,03,19,08,18,8.90
2019,03,19,08,19,8.90
2019,03,19,08,20,8.90
2019,03,19,08,21,9.00
2019,03,19,08,22,9.00
2019,03,19,08,23,9.10
2019,03,19,08,24,9.10
2019,03,19,08,25,9.10
2019,03,19,08,26,9.20
2019,03,19,08,27,9.20
2019,03,19,08,28,9.30
2019,03,19,08,29,9.30
2019,03,19,08,30,9.30
2019,03,19,08,31,9.40
2019,03,19,08,32,9.50
2019,03,19,08,33,9.50
2019,03,19,08,34,9.60
2019,03,19,08,35,9.70
2019,03,19,08,36,9.70
2019,03,19,08,37,9.80
2019,03,19,08,38,9.80
2019,03,19,08,39,9.80
2019,03,19,08,40,9.90
2019,03,19,08,41,9.90
2019,03,19,08,42,9.90
2019,03,19,08,43,9.90
2019,03,19,08,44,10.00
2019,03,19,08,45,10.00
2019,03,19,08,46,10.00
2019,03,19,08,47,10.10
2019,03,19,08,48,10.10
2019,03,19,08,49,10.10
2019,03,19,08,50,10.20
2019,03,19,08,51,10.20
2019,03,19,08,52,10.20
2019,03,19,08,53,10.20
2019,03,19,08,54,10.20
2019,03,19,08,55,10.30
2019,03,19,08,56,10.30
2019,03,19,08,57,10.30
2019,03,19,08,58,10.30
2019,03,19,08,59,10.40
2019,03,19,09,00,10.40
2019,03,19,09,01,10.40
2019,03,19,09,02,10.40
2019,03,19,09,03,10.40
2019,03,19,09,04,10.50
2019,03,19,09,05,10.50
2019,03,19,09,06,10.50
2019,03,19,09,07,10.50
2019,03,19,09,08,10.60
2019,03,19,09,09,10.60
2019,03,19,09,10,10.60
2019,03,19,09,11,10.60
2019,03,19,09,12,10.60
2019,03,19,09,13,10.60
2019,03,19,09,14,10.60
2019,03,19,09,15,10.60
2019,03,19,09,16,10.60
2019,03,19,09,17,10.70
2019,03,19,09,18,10.70
2019,03,19,09,19,10.70
2019,03,19,09,20,10.80
2019,03,19,09,21,10.80
2019,03,19,09,22,10.90
2019,03,19,09,23,10.90
2019,03,19,09,24,11.00
2019,03,19,09,25,11.00
2019,03,19,09,26,11.10
2019,03,19,09,27,11.00
2019,03,19,09,28,11.00
2019,03,19,09,29,11.10
2019,03,19,09,30,11.10
2019,03,19,09,31,11.10
2019,03,19,09,32,11.20
2019,03,19,09,33,11.20
2019,03,19,09,34,11.30
2019,03,19,09,35,11.30
2019,03,19,09,36,11.30
2019,03,19,09,37,11.40
2019,03,19,09,38,11.40
2019,03,19,09,39,11.40
2019,03,19,09,40,11.40
2019,03,19,09,41,11.40
2019,03,19,09,42,11.50
2019,03,19,09,43,11.50
2019,03,19,09,44,11.50
2019,03,19,09,45,11.40
2019,03,19,09,46,11.40
2019,03,19,09,47,11.40
2019,03,19,09,48,11.40
2019,03,19,09,49,11.40
2019,03,19,09,50,11.50
2019,03,19,09,51,11.50
2019,03,19,09,52,11.50
2019,03,19,09,53,11.60
2019,03,19,09,54,11.60
2019,03,19,09,55,11.60
2019,03,19,09,56,11.70
2019,03,19,09,57,11.70
2019,03,19,09,58,11.70
2019,03,19,09,59,11.70
2019,03,19,10,00,11.80
2019,03,19,10,01,11.80
2019,03,19,10,02,11.80
2019,03,19,10,03,11.90
2019,03,19,10,04,11.90
2019,03,19,10,05,11.90
2019,03,19,10,06,11.90
2019,03,19,10,07,12.00
2019,03,19,10,08,12.00
2019,03,19,10,09,12.10
2019,03,19,10,10,12.10
2019,03,19,10,11,12.10
2019,03,19,10,12,12.20
2019,03,19,10,13,12.20
2019,03,19,10,14,12.20
2019,03,19,10,15,12.20
2019,03,19,10,16,12.20
2019,03,19,10,17,12.30
2019,03,19,10,18,12.30
2019,03,19,10,19,12.30
2019,03,19,10,20,12.30
2019,03,19,10,21,12.30
2019,03,19,10,22,12.30
2019,03,19,10,23,12.30
2019,03,19,10,24,12.40
2019,03,19,10,25,12.40
2019,03,19,10,26,12.40
2019,03,19,10,27,12.40
2019,03,19,10,28,12.40
2019,03,19,10,29,12.40
2019,03,19,10,30,12.40
2019,03,19,10,31,12.40
2019,03,19,10,32,12.40
2019,03,19,10,33,12.40
2019,03,19,10,34,12.50
2019,03,19,10,35,12.50
2019,03,19,10,36,12.50
2019,03,19,10,37,12.50
2019,03,19,10,38,12.50
2019,03,19,10,39,12.60
2019,03,19,10,40,12.60
2019,03,19,10,41,12.60
2019,03,19,10,42,12.60
2019,03,19,10,43,12.70
2019,03,19,10,44,12.70
2019,03,19,10,45,12.70
2019,03,19,10,46,12.70
2019,03,19,10,47,12.70
2019,03,19,10,48,12.70
2019,03,19,10,49,12.70
2019,03,19,10,50,12.70
2019,03,19,10,51,12.80
2019,03,19,10,52,12.80
2019,03,19,10,53,12.90
2019,03,19,10,54,12.90
2019,03,19,10,55,13.00
2019,03,19,10,56,13.10
2019,03,19,10,57,13.10
2019,03,19,10,58,13.20
2019,03,19,10,59,13.20
2019,03,19,11,00,13.30
2019,03,19,11,01,13.40
2019,03,19,11,02,13.50
2019,03,19,11,03,13.60
2019,03,19,11,04,13.60
2019,03,19,11,05,13.60
2019,03,19,11,06,13.60
2019,03,19,11,07,13.60
2019,03,19,11,08,13.70
2019,03,19,11,09,13.70
2019,03,19,11,10,13.70
2019,03,19,11,11,13.70
2019,03,19,11,12,13.70
2019,03,19,11,13,13.70
2019,03,19,11,14,13.70
2019,03,19,11,15,13.80
2019,03,19,11,16,13.80
2019,03,19,11,17,13.70
2019,03,19,11,18,13.70
2019,03,19,11,19,13.70
2019,03,19,11,20,13.80
2019,03,19,11,21,13.80
2019,03,19,11,22,13.80
2019,03,19,11,23,13.80
2019,03,19,11,24,13.80
2019,03,19,11,25,13.70
2019,03,19,11,26,13.70
2019,03,19,11,27,13.70
2019,03,19,11,28,13.80
2019,03,19,11,29,13.80
2019,03,19,11,30,13.80
2019,03,19,11,31,13.80
2019,03,19,11,32,13.80
2019,03,19,11,33,13.80
2019,03,19,11,34,13.80
2019,03,19,11,35,13.80
2019,03,19,11,36,13.80
2019,03,19,11,37,13.80
2019,03,19,11,38,13.80
2019,03,19,11,39,13.80
2019,03,19,11,40,13.80
2019,03,19,11,41,13.80
2019,03,19,11,42,13.80
2019,03,19,11,43,13.90
2019,03,19,11,44,13.90
2019,03,19,11,45,13.90
2019,03,19,11,46,14.00
2019,03,19,11,47,14.10
2019,03,19,11,48,14.10
2019,03,19,11,49,14.20
2019,03,19,11,50,14.20
2019,03,19,11,51,14.20
2019,03,19,11,52,14.30
2019,03,19,11,53,14.40
2019,03,19,11,54,14.50
2019,03,19,11,55,14.60
2019,03,19,11,56,14.60
2019,03,19,11,57,14.60
2019,03,19,11,58,14.70
2019,03,19,11,59,14.80
2019,03,19,12,00,14.80
2019,03,19,12,01,14.90
2019,03,19,12,02,15.00
2019,03,19,12,03,15.00
2019,03,19,12,04,15.00
2019,03,19,12,05,14.90
2019,03,19,12,06,14.90
2019,03,19,12,07,14.80
2019,03,19,12,08,14.80
2019,03,19,12,09,14.80
2019,03,19,12,10,14.80
2019,03,19,12,11,14.80
2019,03,19,12,12,14.90
2019,03,19,12,13,14.90
2019,03,19,12,14,14.90
2019,03,19,12,15,14.90
2019,03,19,12,16,14.90
2019,03,19,12,17,14.90
2019,03,19,12,18,14.90
2019,03,19,12,19,14.90
2019,03,19,12,20,14.80
2019,03,19,12,21,14.80
2019,03,19,12,22,14.80
2019,03,19,12,23,14.80
2019,03,19,12,24,14.90
2019,03,19,12,25,14.80
2019,03,19,12,26,14.80
2019,03,19,12,27,14.80
2019,03,19,12,28,14.70
2019,03,19,12,29,14.70
2019,03,19,12,30,14.70
2019,03,19,12,31,14.60
2019,03,19,12,32,14.70
2019,03,19,12,33,14.70
2019,03,19,12,34,14.70
2019,03,19,12,35,14.80
2019,03,19,12,36,14.80
2019,03,19,12,37,14.90
2019,03,19,12,38,15.00
2019,03,19,12,39,15.00
2019,03,19,12,40,15.10
2019,03,19,12,41,15.10
2019,03,19,12,42,15.20
2019,03,19,12,43,15.20
2019,03,19,12,44,15.20
2019,03,19,12,45,15.30
2019,03,19,12,46,15.30
2019,03,19,12,47,15.40
2019,03,19,12,48,15.40
2019,03,19,12,49,15.40
2019,03,19,12,50,15.50
2019,03,19,12,51,15.50
2019,03,19,12,52,15.50
2019,03,19,12,53,15.60
2019,03,19,12,54,15.60
2019,03,19,12,55,15.60
2019,03,19,12,56,15.60
2019,03,19,12,57,15.70
2019,03,19,12,58,15.70
2019,03,19,12,59,15.70
2019,03,19,13,00,15.70
2019,03,19,13,01,15.70
2019,03,19,13,02,15.70
2019,03,19,13,03,15.80
2019,03,19,13,04,15.80
2019,03,19,13,05,15.90
2019,03,19,13,06,15.90
2019,03,19,13,07,15.80
2019,03,19,13,08,15.70
2019,03,19,13,09,15.60
2019,03,19,13,10,15.60
2019,03,19,13,11,15.60
2019,03,19,13,12,15.60
2019,03,19,13,13,15.60
2019,03,19,13,14,15.50
2019,03,19,13,15,15.40
2019,03,19,13,16,15.40
2019,03,19,13,17,15.50
2019,03,19,13,18,15.50
2019,03,19,13,19,15.50
2019,03,19,13,20,15.50
2019,03,19,13,21,15.60
2019,03,19,13,22,15.60
2019,03,19,13,23,15.70
2019,03,19,13,24,15.70
2019,03,19,13,25,15.80
2019,03,19,13,26,15.80
2019,03,19,13,27,15.80
2019,03,19,13,28,15.90
2019,03,19,13,29,16.00
2019,03,19,13,30,16.00
2019,03,19,13,31,16.10
2019,03,19,13,32,16.20
2019,03,19,13,33,16.20
2019,03,19,13,34,16.30
2019,03,19,13,35,16.30
2019,03,19,13,36,16.30
2019,03,19,13,37,16.30
2019,03,19,13,38,16.30
2019,03,19,13,39,16.30
2019,03,19,13,40,16.30
2019,03,19,13,41,16.20
2019,03,19,13,42,16.20
2019,03,19,13,43,16.20
2019,03,19,13,44,16.30
2019,03,19,13,45,16.30
2019,03,19,13,46,16.30
2019,03,19,13,47,16.30
2019,03,19,13,48,16.30
2019,03,19,13,49,16.30
2019,03,19,13,50,16.30
2019,03,19,13,51,16.30
2019,03,19,13,52,16.30
2019,03,19,13,53,16.30
2019,03,19,13,54,16.30
2019,03,19,13,55,16.20
2019,03,19,13,56,16.20
2019,03,19,13,57,16.20
2019,03,19,13,58,16.20
2019,03,19,13,59,16.20
2019,03,19,14,00,16.20
2019,03,19,14,01,16.30
2019,03,19,14,02,16.30
2019,03,19,14,03,16.40
2019,03,19,14,04,16.50
2019,03,19,14,05,16.60
2019,03,19,14,06,16.70
2019,03,19,14,07,16.70
2019,03,19,14,08,16.70
2019,03,19,14,09,16.70
2019,03,19,14,10,16.70
2019,03,19,14,11,16.80
2019,03,19,14,12,16.80
2019,03,19,14,13,16.80
2019,03,19,14,14,16.80
2019,03,19,14,15,16.80
2019,03,19,14,16,16.90
2019,03,19,14,17,16.90
2019,03,19,14,18,16.90
2019,03,19,14,19,16.90
2019,03,19,14,20,16.90
2019,03,19,14,21,16.90
2019,03,19,14,22,16.90
2019,03,19,14,23,16.80
2019,03,19,14,24,16.80
2019,03,19,14,25,16.80
2019,03,19,14,26,16.80
2019,03,19,14,27,16.90
2019,03,19,14,28,17.00
2019,03,19,14,29,17.00
2019,03,19,14,30,17.10
2019,03,19,14,31,17.10
2019,03,19,14,32,17.20
2019,03,19,14,33,17.30
2019,03,19,14,34,17.30
2019,03,19,14,35,17.40
2019,03,19,14,36,17.50
2019,03,19,14,37,17.60
2019,03,19,14,38,17.70
2019,03,19,14,39,17.80
2019,03,19,14,40,17.80
2019,03,19,14,41,17.90
2019,03,19,14,42,18.00
2019,03,19,14,43,18.00
2019,03,19,14,44,18.10
2019,03,19,14,45,18.10
2019,03,19,14,46,18.10
2019,03,19,14,47,18.10
2019,03,19,14,48,18.20
2019,03,19,14,49,18.20
2019,03,19,14,50,18.20
2019,03,19,14,51,18.20
2019,03,19,14,52,18.20
2019,03,19,14,53,18.20
2019,03,19,14,54,18.20
2019,03,19,14,55,18.20
2019,03,19,14,56,18.20
2019,03,19,14,57,18.20
2019,03,19,14,58,18.20
2019,03,19,14,59,18.20
2019,03,19,15,00,18.20
2019,03,19,15,01,18.20
2019,03,19,15,02,18.20
2019,03,19,15,03,18.30
2019,03,19,15,04,18.30
2019,03,19,15,05,18.30
2019,03,19,15,06,18.20
2019,03,19,15,07,18.20
2019,03,19,15,08,18.20
2019,03,19,15,09,18.20
2019,03,19,15,10,18.20
2019,03,19,15,11,18.20
2019,03,19,15,12,18.10
2019,03,19,15,13,18.20
2019,03,19,15,14,18.20
2019,03,19,15,15,18.20
2019,03,19,15,16,18.30
2019,03,19,15,17,18.30
2019,03,19,15,18,18.30
2019,03,19,15,19,18.30
2019,03,19,15,20,18.30
2019,03,19,15,21,18.30
2019,03,19,15,22,18.30
2019,03,19,15,23,18.30
2019,03,19,15,24,18.30
2019,03,19,15,25,18.40
2019,03,19,15,26,18.40
2019,03,19,15,27,18.40
2019,03,19,15,28,18.30
2019,03,19,15,29,18.30
2019,03,19,15,30,18.30
2019,03,19,15,31,18.40
2019,03,19,15,32,18.40
2019,03,19,15,33,18.40
2019,03,19,15,34,18.50
2019,03,19,15,35,18.50
2019,03,19,15,36,18.60
2019,03,19,15,37,18.60
2019,03,19,15,38,18.60
2019,03,19,15,39,18.60
2019,03,19,15,40,18.70
2019,03,19,15,41,18.70
2019,03,19,15,42,18.70
2019,03,19,15,43,18.80
2019,03,19,15,44,18.90
2019,03,19,15,45,18.90
2019,03,19,15,46,18.90
2019,03,19,15,47,18.90
2019,03,19,15,48,18.90
2019,03,19,15,49,18.80
2019,03,19,15,50,18.80
2019,03,19,15,51,18.70
2019,03,19,15,52,18.70
2019,03,19,15,53,18.70
2019,03,19,15,54,18.70
2019,03,19,15,55,18.70
2019,03,19,15,56,18.80
2019,03,19,15,57,18.80
2019,03,19,15,58,18.80
2019,03,19,15,59,18.90
2019,03,19,16,00,18.90
2019,03,19,16,01,18.90
2019,03,19,16,02,18.90
2019,03,19,16,03,18.90
2019,03,19,16,04,18.90
2019,03,19,16,05,18.90
2019,03,19,16,06,18.90
2019,03,19,16,07,18.90
2019,03,19,16,08,18.90
2019,03,19,16,09,18.80
2019,03,19,17,04,18.90
2019,03,19,17,05,18.80
2019,03,19,17,06,18.70
2019,03,19,17,07,18.70
2019,03,19,17,08,18.60
2019,03,19,17,09,18.60
2019,03,19,17,10,18.60
2019,03,19,17,11,18.60
2019,03,19,17,12,18.60
2019,03,19,17,13,18.60
2019,03,19,17,14,18.60
2019,03,19,17,15,18.60
2019,03,19,17,16,18.60
2019,03,19,17,17,18.60
2019,03,19,17,18,18.50
2019,03,19,17,19,18.50
2019,03,19,17,20,18.40
2019,03,19,17,21,18.30
2019,03,19,17,22,18.30
2019,03,19,17,23,18.30
2019,03,19,17,24,18.30
2019,03,19,17,25,18.30
2019,03,19,17,26,18.20
2019,03,19,17,27,18.20
2019,03,19,17,28,18.20
2019,03,19,17,29,18.20
2019,03,19,17,30,18.20
2019,03,19,17,31,18.20
2019,03,19,17,32,18.20
2019,03,19,17,33,18.20
2019,03,19,17,34,18.20
2019,03,19,17,35,18.20
2019,03,19,17,36,18.20
2019,03,19,17,37,18.10
2019,03,19,17,38,18.10
2019,03,19,17,39,18.10
2019,03,19,17,40,18.00
2019,03,19,17,41,17.90
2019,03,19,17,42,17.90
2019,03,19,17,43,17.90
2019,03,19,17,44,17.90
2019,03,19,17,45,18.00
2019,03,19,17,46,18.00
2019,03,19,17,47,18.00
2019,03,19,17,48,18.00
2019,03,19,17,49,18.00
2019,03,19,17,50,17.90
2019,03,19,17,51,17.90
2019,03,19,17,52,17.90
2019,03,19,17,53,17.80
2019,03,19,17,54,17.80
2019,03,19,17,55,17.80
2019,03,19,17,56,17.80
2019,03,19,17,57,17.80
2019,03,19,17,58,17.80
2019,03,19,17,59,17.80
2019,03,19,18,00,17.70
2019,03,19,18,01,17.70
2019,03,19,18,02,17.70
2019,03,19,18,03,17.70
2019,03,19,18,04,17.70
2019,03,19,18,05,17.70
2019,03,19,18,06,17.70
2019,03,19,18,07,17.70
2019,03,19,18,08,17.70
2019,03,19,18,09,17.70
2019,03,19,18,10,17.70
2019,03,19,18,11,17.70
2019,03,19,18,12,17.70
2019,03,19,18,13,17.70
2019,03,19,18,14,17.70
2019,03,19,18,15,17.70
2019,03,19,18,16,17.60
2019,03,19,18,17,17.60
2019,03,19,18,18,17.60
2019,03,19,18,19,17.70
2019,03,19,18,20,17.60
2019,03,19,18,21,17.60
2019,03,19,18,22,17.60
2019,03,19,18,23,17.60
2019,03,19,18,24,17.60
2019,03,19,18,25,17.50
2019,03,19,18,26,17.50
2019,03,19,18,27,17.40
2019,03,19,18,28,17.40
2019,03,19,18,29,17.30
2019,03,19,18,30,17.30
2019,03,19,18,31,17.30
2019,03,19,18,32,17.20
2019,03,19,18,33,17.20
2019,03,19,18,34,17.10
2019,03,19,18,35,17.10
2019,03,19,18,36,17.10
2019,03,19,18,37,17.10
2019,03,19,18,38,17.00
2019,03,19,18,39,17.00
2019,03,19,18,40,16.90
2019,03,19,18,41,16.90
2019,03,19,18,42,16.90
2019,03,19,18,43,16.90
2019,03,19,18,44,16.90
2019,03,19,18,45,16.90
2019,03,19,18,46,16.90
2019,03,19,18,47,16.90
2019,03,19,18,48,16.90
2019,03,19,18,49,16.80
2019,03,19,18,50,16.80
2019,03,19,18,51,16.70
2019,03,19,18,52,16.70
2019,03,19,18,53,16.70
2019,03,19,18,54,16.60
2019,03,19,18,55,16.60
2019,03,19,18,56,16.50
2019,03,19,18,57,16.40
2019,03,19,18,58,16.40
2019,03,19,18,59,16.40
2019,03,19,19,00,16.30
2019,03,19,19,01,16.30
2019,03,19,19,02,16.20
2019,03,19,19,03,16.20
2019,03,19,19,04,16.20
2019,03,19,19,05,16.20
2019,03,19,19,06,16.10
2019,03,19,19,07,16.10
2019,03,19,19,08,16.10
2019,03,19,19,09,16.10
2019,03,19,19,10,16.10
2019,03,19,19,11,16.10
2019,03,19,19,12,16.10
2019,03,19,19,13,16.10
2019,03,19,19,14,16.10
2019,03,19,19,15,16.00
2019,03,19,19,16,16.00
2019,03,19,19,17,16.00
2019,03,19,19,18,16.00
2019,03,19,19,19,16.10
2019,03,19,19,20,16.10
2019,03,19,19,21,16.10